Tracking 31027 objects as of 19-Jul-2025
HD Live streaming from Space Station
objects crossing your sky now

THOR ABLESTAR DEB *

Track THOR ABLESTAR DEB * now!
10-day predictions


NORAD ID: 18651
Int'l Code: 1961-015LW
Perigee: 929.6 km
Apogee: 2,094.3 km
Inclination: 65.7 °
Period: 116.1 minutes
Semi major axis: 7882 km
RCS: 0.0068 m2 (small)
Launch date: June 29, 1961
Source: United States (US)
Launch site: AIR FORCE EASTERN TEST RANGE (AFETR)

Note: This is SATELLITE DEBRIS
Your satellite tracking list
ATLAS 2A CENTAUR R/B
Track 1 satellite(s)




NASA's NSSDC Master Catalog

Two Line Element Set (TLE):
1 18651U 61015LW  25199.26639757 -.00000024  00000-0  92755-4 0  9994
2 18651  65.6969 175.9389 0738719  42.7581  64.4706 12.40416575562889
Source of the keplerian elements: AFSPC